| time (UTC) | temp F | wind direction | speed knots | gust knots | rain 1hr in | rain 24hr in | rain mn in | humidity % | barometer mb |
| 20260505051537 | 39 | 239 | 5.2 | 11.3 | 0.00 | 0.19 | 0.00 | 92 | 1005.8 |
| 20260505041543 | 41 | 223 | 4.3 | 13.9 | 0.00 | 0.19 | 0.00 | 90 | 1005.3 |
| 20260505040038 | 41 | 268 | 4.3 | 13.9 | 0.00 | 0.19 | 0.00 | 90 | 1005.3 |
| 20260505034545 | 41 | 255 | 5.2 | 13.0 | 0.00 | 0.19 | 0.00 | 91 | 1005.1 |
| 20260505033046 | 40 | 216 | 5.2 | 11.3 | 0.00 | 0.19 | 0.00 | 91 | 1005.0 |
| 20260505031540 | 40 | 287 | 4.3 | 10.4 | 0.00 | 0.19 | 0.00 | 91 | 1004.7 |
| 20260505030044 | 40 | 266 | 5.2 | 12.2 | 0.01 | 0.19 | 0.00 | 90 | 1004.6 |
| 20260505024543 | 41 | 232 | 5.2 | 14.8 | 0.01 | 0.19 | 0.19 | 91 | 1004.3 |
| 20260505023040 | 41 | 228 | 4.3 | 12.2 | 0.01 | 0.19 | 0.19 | 90 | 1004.0 |
| 20260505021540 | 41 | 207 | 5.2 | 13.0 | 0.01 | 0.19 | 0.19 | 91 | 1003.9 |
| 20260505020039 | 41 | 198 | 5.2 | 15.6 | 0.00 | 0.18 | 0.18 | 90 | 1003.6 |
| 20260505014539 | 41 | 260 | 5.2 | 13.0 | 0.00 | 0.18 | 0.18 | 89 | 1003.6 |
| 20260505013037 | 42 | 194 | 6.1 | 11.3 | 0.00 | 0.18 | 0.18 | 86 | 1003.4 |
| 20260505011555 | 43 | 253 | 4.3 | 13.0 | 0.00 | 0.18 | 0.18 | 84 | 1003.3 |
| 20260505010043 | 43 | 226 | 3.5 | 13.9 | 0.00 | 0.18 | 0.18 | 82 | 1003.1 |
| 20260505004538 | 43 | 220 | 5.2 | 14.8 | 0.00 | 0.19 | 0.18 | 82 | 1003.1 |
| 20260505003037 | 42 | 126 | 7.8 | 15.6 | 0.00 | 0.19 | 0.18 | 84 | 1002.9 |
| 20260505001538 | 41 | 169 | 2.6 | 9.6 | 0.00 | 0.19 | 0.18 | 84 | 1002.9 |
| 20260505000043 | 42 | 189 | 2.6 | 10.4 | 0.00 | 0.19 | 0.18 | 83 | 1002.7 |
| 20260504234540 | 41 | 225 | 3.5 | 11.3 | 0.00 | 0.21 | 0.18 | 83 | 1002.4 |
| 20260504233051 | 41 | 217 | 2.6 | 8.7 | 0.00 | 0.21 | 0.18 | 81 | 1002.3 |
| 20260504231538 | 42 | 235 | 2.6 | 11.3 | 0.00 | 0.21 | 0.18 | 80 | 1002.2 |
| 20260504230037 | 42 | 205 | 3.5 | 9.6 | 0.00 | 0.21 | 0.18 | 80 | 1002.0 |
| 20260504224541 | 42 | 0 | 2.6 | 8.7 | 0.00 | 0.28 | 0.18 | 79 | 1002.1 |
| 20260504223039 | 43 | 235 | 2.6 | 10.4 | 0.00 | 0.28 | 0.18 | 78 | 1001.9 |
| 20260504221538 | 44 | 226 | 4.3 | 12.2 | 0.00 | 0.28 | 0.18 | 78 | 1001.9 |
| 20260504220037 | 44 | 79 | 3.5 | 13.0 | 0.00 | 0.28 | 0.18 | 79 | 1001.7 |
| 20260504214538 | 44 | 221 | 4.3 | 13.9 | 0.00 | 0.35 | 0.18 | 80 | 1001.6 |
| 20260504213038 | 44 | 227 | 2.6 | 10.4 | 0.00 | 0.35 | 0.18 | 80 | 1001.3 |
| 20260504211538 | 45 | 204 | 5.2 | 12.2 | 0.00 | 0.35 | 0.18 | 79 | 1001.1 |
| 20260504210038 | 45 | 201 | 4.3 | 11.3 | 0.00 | 0.35 | 0.18 | 81 | 1000.9 |
| 20260504204538 | 45 | 225 | 3.5 | 13.0 | 0.00 | 0.40 | 0.18 | 80 | 1000.6 |
| 20260504203039 | 46 | 189 | 4.3 | 12.2 | 0.00 | 0.40 | 0.18 | 80 | 1000.4 |
| 20260504201538 | 46 | 147 | 5.2 | 13.9 | 0.00 | 0.40 | 0.18 | 80 | 1000.4 |
| 20260504200038 | 47 | 300 | 3.5 | 13.0 | 0.00 | 0.40 | 0.18 | 80 | 1000.1 |
| 20260504194538 | 47 | 166 | 4.3 | 9.6 | 0.00 | 0.44 | 0.18 | 81 | 999.6 |
| 20260504193036 | 46 | 252 | 5.2 | 13.9 | 0.00 | 0.44 | 0.18 | 82 | 999.5 |
| 20260504191537 | 46 | 216 | 5.2 | 13.0 | 0.00 | 0.44 | 0.18 | 83 | 999.4 |
| 20260504190038 | 46 | 264 | 7.0 | 13.9 | 0.00 | 0.44 | 0.18 | 84 | 999.3 |
| 20260504184537 | 46 | 236 | 5.2 | 13.9 | 0.00 | 0.44 | 0.18 | 84 | 999.2 |
| 20260504183038 | 45 | 207 | 7.8 | 17.4 | 0.00 | 0.44 | 0.18 | 86 | 999.1 |
| 20260504181538 | 43 | 246 | 7.0 | 13.9 | 0.00 | 0.44 | 0.18 | 90 | 999.0 |
| 20260504180043 | 42 | 190 | 3.5 | 13.9 | 0.00 | 0.44 | 0.18 | 90 | 999.0 |
| 20260504174538 | 42 | 245 | 7.8 | 15.6 | 0.00 | 0.44 | 0.18 | 89 | 998.6 |
| 20260504173037 | 42 | 212 | 9.6 | 19.1 | 0.00 | 0.44 | 0.18 | 90 | 998.3 |
| 20260504171547 | 41 | 193 | 10.4 | 19.1 | 0.00 | 0.44 | 0.18 | 91 | 998.1 |
| 20260504081541 | 37 | 263 | 5.2 | 8.7 | 0.03 | 0.33 | 0.07 | 96 | 977.0 |